Theta_e
304 304 304 304 304 305 305 305 305 305 306 305 306 306 306 306 306 308 309 308 308 308 308 307 307 308 307 307 307 307 307 307 308 308 310 316 317 317 320 320 318 315 314 313 314 323 329 327 324 326 331 336 340 343 347 349 351 352 353 351 350 351 351 348 349 348 344 349 354 354 355 353 353 353 353 353 352 352 351 351 350 349 349 348 348 347 347 348
304 304 305 305 305 305 305 305 306 305 306 306 306 306 306 306 307 309 308 308 308 307 307 307 307 308 308 308 307 307 307 307 308 309 312 317 318 318 320 320 318 316 315 314 314 319 327 327 324 327 333 337 338 340 345 349 350 351 351 350 350 351 351 348 348 347 346 349 353 354 354 353 353 353 354 353 353 353 352 351 350 349 349 348 347 347 347 347
305 305 305 305 305 305 305 305 305 306 305 306 306 306 306 306 307 309 308 308 308 307 308 307 307 308 308 308 307 307 307 308 311 315 321 323 322 320 321 320 317 316 315 315 315 315 321 327 325 327 333 335 335 339 344 348 350 350 350 350 350 350 350 349 350 349 347 348 353 354 353 353 354 354 353 353 352 352 352 351 350 350 349 348 348 347 347 347
306 306 305 305 305 305 305 305 306 306 306 306 306 306 306 306 307 308 309 308 308 308 308 308 309 309 310 309 308 308 307 311 317 320 323 324 323 322 322 321 317 316 315 316 316 314 318 326 326 326 331 334 336 341 343 345 350 350 349 350 350 349 349 350 350 349 348 348 351 353 352 352 354 353 353 354 353 351 352 352 351 350 349 348 348 347 347 347
306 306 306 306 306 305 306 306 306 306 306 306 306 306 306 306 306 307 309 309 309 308 308 309 309 309 310 310 309 308 307 315 321 318 320 323 322 322 321 321 318 316 315 318 318 316 320 324 325 327 329 333 336 340 341 345 349 349 349 350 351 349 349 351 349 347 348 348 350 351 351 351 354 353 353 354 353 353 354 353 351 349 348 347 347 347 347 347
308 307 307 307 307 306 306 306 306 306 306 306 306 307 306 306 306 306 308 309 309 308 308 309 308 308 309 309 310 309 308 315 318 315 318 321 321 322 322 321 320 316 314 320 321 320 323 324 325 327 328 332 335 337 339 344 348 348 350 350 351 350 350 353 351 349 349 347 349 350 350 352 353 353 352 353 352 353 354 353 350 348 346 346 347 347 347 347
309 309 308 308 308 307 307 307 307 306 306 306 306 306 306 306 306 306 307 308 309 308 308 309 309 311 311 308 309 310 310 311 313 316 319 319 320 322 322 321 320 317 314 320 324 322 324 326 326 326 327 329 333 335 337 342 347 347 347 348 349 349 350 351 349 348 346 345 346 348 350 352 352 351 353 353 352 352 352 352 351 348 346 346 347 348 347 347
308 309 310 310 309 308 308 308 307 307 306 306 306 306 306 306 306 306 307 308 308 307 307 308 309 311 312 310 309 310 311 310 312 317 320 319 321 321 321 321 320 318 314 319 324 322 323 326 326 325 325 326 330 333 334 339 343 345 346 346 346 347 347 347 345 344 343 343 345 347 349 350 352 352 352 353 352 351 352 352 350 348 346 346 347 347 347 347
308 308 309 310 310 309 309 309 308 307 307 307 306 307 306 306 306 306 307 307 308 307 308 310 310 310 312 311 309 310 312 312 314 317 318 319 320 322 322 321 320 318 315 318 323 322 323 327 326 324 323 325 328 330 332 335 337 342 344 345 345 344 344 344 343 343 342 342 344 346 347 349 351 351 351 352 352 352 351 351 350 348 346 346 347 347 347 347
307 307 309 310 311 310 309 309 308 308 307 307 306 306 306 307 307 306 307 307 307 307 310 311 312 312 312 311 310 311 311 314 318 318 318 317 317 321 323 321 321 319 314 318 323 322 322 323 324 324 323 324 328 329 331 333 335 339 341 342 343 343 343 342 342 342 341 341 342 344 344 347 350 349 350 352 352 352 351 351 350 348 347 346 346 347 347 347
307 307 308 310 311 311 310 309 308 308 307 307 306 306 307 307 307 307 307 307 307 310 313 314 314 312 311 311 311 312 311 313 319 318 317 318 316 319 323 321 320 319 316 318 322 322 319 319 322 323 322 324 328 329 332 332 334 337 338 338 339 339 340 339 339 339 339 340 341 342 343 346 348 348 349 352 352 351 351 351 350 349 348 346 346 347 348 348
306 307 307 309 310 311 311 309 308 308 307 306 306 307 307 307 307 307 307 307 310 312 313 313 312 312 313 313 314 316 315 312 315 316 316 317 316 318 323 323 319 318 316 317 321 321 318 318 320 321 320 323 327 327 328 331 333 334 335 336 336 335 336 335 336 337 338 339 341 343 342 344 346 347 349 351 352 352 352 352 351 350 349 347 347 347 348 348
306 307 307 308 310 311 311 310 308 308 307 307 306 307 307 307 307 306 307 309 311 312 312 312 312 313 316 316 315 317 317 315 315 315 316 315 316 319 323 323 320 317 316 318 321 321 319 319 320 321 321 323 327 324 324 329 332 332 333 334 336 335 335 336 336 337 338 338 342 342 339 342 345 345 348 351 352 353 353 352 351 351 350 349 348 348 348 348
306 306 307 308 309 311 311 309 308 307 307 307 307 308 307 307 307 306 309 310 310 311 313 314 314 315 317 316 315 313 315 318 316 315 316 314 314 319 324 324 321 317 317 320 322 322 321 320 321 321 321 324 326 324 323 327 329 330 330 331 334 332 332 336 337 337 339 339 342 341 336 340 345 344 349 352 352 353 353 353 352 351 350 349 348 348 348 348
305 306 307 308 310 311 311 309 308 307 307 307 307 307 307 307 306 307 309 308 310 314 315 315 316 317 316 314 314 312 312 315 316 315 317 315 313 318 324 324 320 317 317 320 323 324 324 322 322 321 322 323 324 323 324 325 327 328 325 325 329 330 331 335 336 338 339 340 343 341 336 340 342 344 350 352 352 353 353 353 353 352 351 350 349 348 348 348
305 306 307 309 310 311 311 308 307 307 306 307 307 307 307 307 307 309 309 308 313 316 314 313 317 320 317 313 313 313 311 313 315 316 316 316 314 317 324 323 318 316 317 319 320 323 326 325 323 322 322 322 322 324 324 323 324 328 324 322 327 328 328 332 334 336 339 339 342 340 338 341 342 344 351 352 352 354 354 354 353 352 351 351 349 349 348 348
305 305 307 309 311 311 309 307 307 306 306 307 307 307 307 307 309 310 308 309 315 316 314 312 315 319 317 312 311 311 311 311 314 316 316 316 315 316 324 323 317 316 318 317 317 320 323 324 322 323 323 321 321 323 322 319 320 325 325 323 327 329 327 328 333 335 336 338 341 341 340 341 341 346 352 353 353 354 354 354 353 353 352 351 350 350 349 348
304 305 307 310 311 310 308 306 306 306 306 307 307 307 308 308 312 311 307 309 314 315 315 313 313 316 315 311 310 310 311 312 312 314 315 317 315 316 323 322 318 317 318 319 318 318 319 321 320 320 322 321 322 321 319 319 320 323 325 324 325 328 328 329 333 334 334 336 339 341 342 341 341 347 352 353 353 354 354 354 354 353 353 353 351 351 350 349
304 305 308 310 310 309 307 306 306 306 307 307 307 308 308 309 311 311 308 308 311 312 313 312 311 312 311 310 310 310 312 312 312 313 314 315 315 317 324 323 319 318 318 318 318 318 318 319 319 318 319 320 321 320 319 322 324 324 326 327 325 326 327 330 333 333 334 335 338 339 341 342 342 345 351 353 353 353 354 355 354 354 353 353 352 351 351 349
304 305 308 310 309 308 307 306 306 307 307 308 308 308 310 311 311 310 308 308 308 309 310 310 310 310 310 310 309 310 312 312 312 312 313 314 315 320 325 324 319 318 318 317 318 319 318 318 318 317 318 319 320 320 321 323 326 326 327 328 327 326 327 330 331 330 332 333 334 338 339 340 341 342 348 353 353 353 354 355 354 354 353 353 352 352 351 350
304 306 308 309 308 307 307 307 307 307 308 308 308 309 311 311 311 310 309 308 307 309 310 310 310 310 309 310 310 310 311 312 313 313 314 316 317 322 325 323 319 318 317 318 319 318 317 317 318 318 318 318 319 320 321 322 324 326 327 326 328 327 327 330 330 328 330 331 333 336 336 338 339 341 346 351 352 352 354 355 354 354 353 353 353 352 352 351
304 306 309 309 308 307 307 307 307 307 308 308 308 309 309 309 310 310 309 307 307 309 311 311 310 309 309 310 309 309 310 312 312 313 314 315 317 320 323 323 321 320 318 317 318 318 317 317 317 318 317 316 318 319 320 321 322 324 326 325 326 327 327 328 329 327 329 330 332 334 333 335 337 339 344 349 352 352 353 354 354 354 353 353 353 353 352 351
304 305 308 309 308 308 308 308 308 308 308 308 308 309 309 308 309 310 308 307 307 310 310 310 309 308 309 309 309 309 310 311 311 312 313 314 315 315 319 323 323 321 319 317 317 317 317 317 318 318 317 316 317 318 319 320 320 322 324 325 324 326 326 326 327 327 327 329 331 332 332 332 335 339 343 348 351 353 353 353 353 354 353 353 353 352 352 351
304 304 307 309 309 309 308 309 309 309 308 308 308 308 309 308 309 309 308 307 307 310 311 310 309 308 308 309 309 309 310 311 311 311 312 313 313 313 315 321 322 322 321 318 318 318 317 319 319 317 317 316 316 318 319 319 318 320 322 324 325 327 327 326 327 327 327 328 329 329 328 330 333 336 340 346 350 352 353 353 354 354 353 353 353 352 352 352
304 304 306 309 310 310 309 310 310 310 309 309 308 308 309 308 309 309 309 308 308 310 311 309 309 309 308 308 309 309 310 311 311 311 312 312 313 313 314 318 321 322 322 320 319 319 318 321 319 317 317 317 316 318 319 319 318 319 321 323 325 328 328 328 329 328 326 326 328 328 325 328 333 334 337 344 349 350 351 352 353 353 354 353 353 352 351 351
303 304 305 308 310 310 310 310 310 310 309 309 308 309 309 309 309 308 308 309 309 310 310 309 309 308 308 309 309 310 310 312 311 311 313 313 313 313 313 316 319 321 321 320 321 321 320 321 320 318 317 317 318 317 319 320 318 318 321 324 325 327 328 328 329 328 325 325 328 328 325 327 329 331 335 342 349 351 350 351 352 353 353 353 353 352 352 351
303 304 304 306 309 310 311 310 310 310 310 309 309 309 309 309 309 308 308 310 310 309 308 308 308 308 308 309 309 310 310 311 311 312 313 313 314 313 313 315 317 319 321 321 321 322 321 322 320 320 320 318 318 317 319 321 318 319 324 326 326 327 328 328 328 327 327 327 328 328 327 324 324 329 336 340 346 350 350 350 351 353 353 352 353 352 352 352
303 303 304 306 308 310 310 310 310 310 309 309 309 309 309 309 309 308 308 310 310 308 308 307 307 308 308 308 309 309 309 309 310 312 313 313 313 313 313 314 315 317 319 321 322 323 322 322 321 321 321 320 319 318 319 320 318 321 326 327 327 327 328 329 328 327 328 327 326 327 327 324 323 328 335 339 342 348 352 351 350 352 353 352 352 353 352 352
303 303 304 307 309 310 310 310 310 310 309 309 309 309 309 309 308 308 309 310 310 307 307 307 307 307 308 308 308 309 309 309 309 311 313 313 313 313 313 313 314 314 316 318 320 322 322 322 322 322 321 321 321 320 320 320 319 322 325 327 327 327 328 328 328 327 327 327 326 327 326 324 324 326 331 336 338 343 349 351 350 352 353 352 352 352 352 352
303 303 305 308 309 310 311 310 310 310 310 309 310 309 309 309 309 310 309 309 309 308 307 308 307 307 308 308 308 308 308 309 309 310 312 313 313 313 313 313 313 314 315 315 316 318 318 319 321 323 322 322 322 322 321 321 321 323 325 326 327 327 328 329 328 326 327 327 326 326 326 324 324 325 328 334 337 340 345 348 350 352 352 353 352 352 352 352
303 304 306 309 310 310 310 311 311 311 310 310 310 309 309 309 309 310 309 308 307 307 307 307 307 307 307 308 307 308 308 309 309 310 312 313 312 312 313 313 313 315 316 315 316 317 317 317 321 322 323 324 323 323 323 322 322 323 323 324 325 326 326 327 326 326 327 325 325 325 326 324 323 325 329 333 336 337 341 344 347 350 351 353 352 352 352 351
304 305 307 309 310 310 310 311 311 311 311 310 310 309 308 309 309 309 309 308 307 307 307 306 306 306 307 307 307 307 307 308 309 310 311 312 312 311 311 311 311 314 317 316 316 316 316 319 319 321 324 323 322 323 324 324 323 323 322 322 323 324 326 326 325 325 326 325 324 325 325 323 323 326 330 332 332 334 336 339 344 348 350 352 352 352 352 351
306 307 308 310 310 310 310 310 311 311 311 311 310 309 309 309 310 309 308 307 307 307 306 307 306 306 306 307 307 306 307 307 308 310 311 312 312 311 310 310 309 312 315 316 316 316 317 319 318 320 322 319 320 322 322 323 324 323 322 321 321 323 326 326 325 325 325 323 323 324 324 322 322 326 330 331 330 332 334 336 340 345 349 350 351 352 352 351
308 308 309 310 310 310 310 309 310 310 311 311 310 309 309 308 309 308 307 306 306 306 306 306 306 306 307 307 306 306 307 307 308 310 311 312 312 312 311 310 309 310 311 314 316 316 317 319 318 318 318 315 318 321 320 322 325 325 325 324 323 322 324 325 324 324 324 323 322 323 323 321 321 325 330 330 330 331 332 333 337 341 346 347 349 351 352 352
309 310 310 310 310 309 309 309 309 310 311 311 309 310 309 308 308 307 306 307 306 305 305 305 306 307 306 306 306 306 307 307 307 309 311 312 312 311 311 311 310 309 311 314 315 315 316 318 316 314 314 314 317 318 319 322 324 326 327 325 324 324 324 324 323 323 323 322 322 322 322 323 324 327 329 328 329 331 331 333 335 339 342 345 347 349 351 351
310 310 311 311 310 309 309 309 309 310 311 310 310 309 308 307 306 306 306 307 305 305 305 305 306 306 306 307 306 306 307 307 307 307 309 310 310 311 310 310 309 308 310 312 312 313 315 317 314 313 314 316 317 317 317 320 323 324 325 324 326 328 327 324 323 324 323 322 323 322 321 324 324 326 327 326 327 329 330 331 333 336 340 343 345 346 349 350
311 310 311 311 310 309 309 309 310 310 310 311 311 309 307 306 307 306 306 306 305 305 306 306 307 306 306 307 306 306 306 307 307 307 307 308 310 310 310 310 309 308 309 310 310 310 312 314 313 313 316 317 317 316 317 319 321 323 324 325 326 328 327 326 325 325 324 323 324 321 320 321 321 323 328 327 327 328 329 331 331 335 339 341 343 344 345 347
311 310 311 311 310 308 308 309 310 310 310 312 312 310 307 307 307 307 306 306 305 305 306 306 306 306 306 307 306 306 306 306 307 307 307 307 309 310 309 309 309 308 309 310 310 309 310 313 315 314 316 317 316 317 319 321 321 322 324 326 327 325 324 325 326 326 326 325 324 322 320 320 319 322 326 327 328 328 330 331 331 332 337 339 340 343 344 346
311 311 311 310 309 309 309 309 309 309 310 311 311 310 308 307 308 308 307 306 305 305 306 306 306 306 306 306 306 306 306 307 307 307 307 307 308 309 309 308 309 309 309 309 310 310 310 312 316 315 315 315 315 318 319 321 322 322 323 325 327 325 324 325 325 325 325 326 325 323 321 320 322 324 326 327 329 328 329 333 334 332 336 339 340 342 344 345
311 311 310 310 309 308 309 308 308 309 309 309 309 309 309 309 309 308 308 307 305 306 306 305 306 307 306 306 306 306 306 306 307 307 307 307 308 308 309 309 308 308 309 309 309 310 310 313 316 316 314 315 317 319 319 320 321 321 321 322 325 325 325 326 325 324 324 325 325 325 322 321 325 328 327 327 330 330 330 334 337 335 336 339 340 342 344 345
311 311 310 309 309 308 308 309 309 309 309 308 308 308 309 310 309 308 308 307 306 306 306 306 306 306 306 306 306 307 307 306 307 307 307 307 308 308 309 309 308 308 308 309 309 310 311 312 315 315 314 315 317 317 317 317 317 317 318 320 321 322 324 324 326 325 323 323 324 325 323 323 326 330 328 326 329 331 331 333 336 336 336 338 341 341 342 342
311 310 309 308 308 308 308 309 309 309 308 308 308 308 309 310 308 308 309 308 308 308 307 307 307 306 306 307 306 306 307 306 306 307 307 308 308 308 309 309 309 309 308 308 309 310 312 313 314 315 314 315 315 315 315 315 315 315 316 318 318 319 320 322 325 324 323 323 324 324 323 325 329 333 330 328 329 330 330 333 334 335 335 337 338 341 341 339
310 309 308 308 308 308 308 309 308 309 308 308 308 308 309 309 309 309 308 308 309 308 308 307 307 307 307 307 306 306 307 306 306 307 308 309 308 308 309 309 309 309 308 308 309 311 313 313 314 316 316 315 315 315 315 315 316 317 316 317 317 318 318 319 321 322 321 323 324 324 324 325 330 336 333 330 330 327 326 328 330 333 335 335 336 339 342 339
308 308 308 307 307 307 308 308 308 308 308 308 308 308 308 309 308 308 308 308 308 308 307 307 307 307 307 307 307 306 307 307 307 307 308 308 308 309 309 309 309 308 308 308 310 312 313 313 315 316 317 316 317 318 318 317 316 317 316 316 316 316 317 318 320 321 321 322 323 324 324 325 331 338 335 330 330 329 326 325 325 328 330 333 334 338 342 341
308 309 308 307 307 308 307 307 307 307 307 308 308 308 308 308 308 308 308 308 308 308 308 308 308 308 308 308 307 307 307 307 307 307 308 308 308 309 310 309 309 309 309 309 311 312 312 313 315 316 317 318 320 319 318 317 317 316 315 315 315 315 316 318 322 322 322 323 322 322 323 325 331 336 334 332 332 331 332 330 326 325 325 327 329 332 337 340
308 309 309 308 307 307 307 306 307 307 307 307 308 308 308 308 308 309 308 308 308 308 308 308 308 308 308 308 308 308 307 306 306 307 307 308 307 308 309 309 310 310 309 310 312 312 311 312 313 315 316 318 319 316 313 314 315 315 315 315 315 315 315 317 321 323 324 323 322 323 324 324 326 330 332 332 332 333 334 332 330 329 327 325 326 325 328 334
307 307 307 307 308 308 308 307 308 307 307 307 308 308 308 308 308 309 308 308 308 308 308 308 308 308 308 308 308 308 308 307 307 307 307 307 307 307 308 309 310 310 310 311 311 311 311 311 312 313 314 314 315 314 312 312 313 314 314 315 315 315 315 317 320 322 324 324 322 327 332 328 325 328 333 336 337 336 334 332 332 331 328 326 326 324 326 330
307 307 306 307 307 308 308 307 308 308 307 308 308 308 308 308 308 308 308 308 309 308 308 308 308 307 307 307 308 308 308 308 308 308 307 307 307 307 308 308 308 309 309 311 311 310 310 310 311 311 312 312 312 313 312 312 313 313 314 314 314 315 315 317 319 320 323 325 326 329 335 332 327 327 333 339 344 344 342 338 335 335 335 333 331 327 327 330
307 307 307 308 308 308 307 307 308 307 307 308 309 308 308 308 308 308 308 307 308 308 308 308 307 307 307 307 307 308 308 308 308 308 308 307 307 307 307 308 308 309 310 310 310 310 309 309 310 310 311 311 311 311 312 312 313 313 314 314 314 315 315 316 319 322 325 327 327 328 332 331 328 329 337 344 349 350 349 347 345 347 348 347 344 339 333 329
308 308 308 308 308 309 308 308 307 307 307 308 308 308 308 308 307 307 308 307 307 308 308 307 307 307 307 307 307 307 308 307 308 308 307 307 307 308 308 308 308 309 310 309 310 310 309 309 310 311 311 312 311 312 312 312 313 313 314 315 315 315 316 318 324 332 334 332 330 329 330 330 332 335 343 348 350 350 351 351 352 353 352 352 352 350 344 337
307 308 308 308 309 309 309 308 308 307 307 307 308 308 308 308 308 307 307 308 308 308 308 307 307 307 307 307 307 308 308 308 308 308 308 308 308 308 308 308 307 309 310 310 310 310 309 309 309 310 311 312 312 313 313 313 314 314 314 315 315 316 319 325 331 335 335 335 335 333 331 333 336 338 343 348 349 349 350 352 352 350 350 352 353 354 352 346
307 308 308 308 308 309 308 308 308 308 308 308 308 308 308 308 308 308 308 308 308 308 308 307 308 307 307 307 308 308 308 308 308 308 308 308 308 308 308 308 308 308 309 310 309 309 309 309 308 309 311 311 312 314 314 314 316 316 317 317 316 319 326 330 331 331 330 332 335 336 334 333 333 334 338 344 347 347 350 350 350 349 350 350 351 353 354 350
Wind_Speed
23 22 22 21 21 20 20 20 20 19 19 19 19 20 20 21 22 22 21 20 18 18 18 17 16 15 15 16 16 16 15 15 14 17 17 11 9 11 12 11 17 23 22 25 28 30 28 22 19 20 20 18 12 11 12 8 6 6 3 3 4 3 3 1 1 2 2 3 8 12 13 10 10 10 10 10 9 13 12 6 8 7 3 8 15 24 31 33
23 23 22 22 21 21 20 20 19 19 19 19 20 20 20 21 22 21 21 20 18 19 20 20 18 16 15 15 15 16 16 15 16 17 13 9 8 8 13 13 16 25 26 27 30 31 32 28 24 23 21 15 9 9 11 9 8 8 4 4 5 3 3 2 3 3 3 2 8 11 11 9 11 13 13 10 10 13 10 7 10 10 11 12 18 28 32 34
23 22 22 22 21 21 20 20 19 19 19 19 20 20 21 21 21 20 20 20 19 20 22 21 19 16 15 14 14 15 15 15 14 8 3 4 6 8 14 18 18 25 27 26 28 29 31 32 28 26 21 11 8 10 11 10 10 10 6 5 6 4 4 4 6 6 3 2 8 11 10 8 10 14 13 10 12 13 10 11 13 14 17 20 25 31 33 34
23 22 22 22 22 21 20 20 19 18 19 19 20 20 20 21 20 19 19 20 20 21 22 21 18 14 13 13 13 12 13 11 6 4 2 3 2 6 16 21 22 25 25 25 27 28 29 30 29 27 20 9 9 10 10 12 9 9 9 5 2 2 4 3 3 5 4 2 6 10 10 9 10 12 12 12 11 9 11 16 17 20 24 26 30 33 34 34
23 22 22 22 22 21 20 20 19 18 18 19 20 20 20 20 20 19 19 19 20 20 22 19 14 13 12 12 13 11 10 3 3 6 5 3 3 3 16 24 24 25 26 26 28 29 28 30 28 23 14 7 10 9 10 16 11 7 9 8 4 2 3 1 0 2 2 1 5 8 10 9 11 11 13 16 11 6 13 18 19 24 26 29 34 34 34 34
23 23 22 22 22 22 21 20 19 19 19 18 19 20 20 19 19 19 18 19 20 20 20 15 10 13 14 14 14 10 6 1 1 8 8 4 2 1 14 24 25 25 27 26 28 29 28 31 26 18 10 6 12 9 8 17 14 7 8 10 11 8 7 6 4 5 7 3 5 7 9 10 12 11 14 19 11 3 9 17 20 23 25 29 35 35 36 36
24 24 23 22 22 22 22 21 20 19 19 19 18 19 20 19 19 19 18 19 19 20 18 13 8 11 17 18 16 11 8 7 4 7 8 5 3 1 12 24 25 25 28 28 30 31 31 31 24 16 11 6 10 10 6 14 15 10 8 9 11 11 12 11 10 11 10 8 7 6 8 12 14 10 13 19 10 2 8 17 22 23 26 31 34 35 36 37
25 25 24 23 22 23 22 22 21 20 20 19 18 19 19 19 19 19 18 18 19 19 17 12 10 11 17 20 17 13 11 9 4 3 7 3 3 3 12 23 26 26 29 31 31 34 34 31 23 17 12 6 9 11 7 10 13 13 10 7 7 9 11 11 11 11 10 10 7 8 10 13 16 8 10 17 11 7 10 17 23 25 29 33 35 34 34 35
26 26 26 24 23 23 22 22 21 20 20 19 18 18 19 20 19 18 18 18 18 17 15 12 13 14 17 20 18 11 7 5 4 2 6 5 1 4 12 22 25 27 31 30 30 35 33 29 26 19 12 8 9 11 11 9 8 13 15 9 7 8 8 9 11 10 10 9 5 8 10 12 15 7 7 15 13 12 15 20 25 29 32 34 35 36 35 35
27 27 27 26 25 24 23 23 22 21 20 19 18 18 19 19 19 19 18 17 17 15 13 12 12 14 19 21 13 4 4 6 3 4 7 6 4 2 11 21 24 26 31 31 31 36 35 31 31 23 9 8 9 9 13 11 3 6 13 15 15 14 13 14 15 14 12 11 9 10 9 10 15 9 6 12 16 16 19 24 27 30 32 34 36 36 36 35
27 27 27 27 26 25 23 23 22 21 20 19 18 19 19 19 19 18 17 15 15 13 11 12 14 16 20 17 6 2 5 6 4 6 10 8 5 2 8 21 26 27 31 33 32 34 35 32 32 23 6 6 9 6 11 11 5 4 7 10 14 15 15 16 15 15 11 8 11 11 10 7 12 11 9 13 20 20 22 26 28 30 31 33 35 35 34 34
28 27 27 26 27 26 24 23 22 21 20 19 19 20 20 20 19 17 15 14 12 12 13 15 16 16 15 8 2 3 6 5 3 5 9 9 5 2 5 17 28 29 30 33 32 32 32 29 30 22 5 5 8 3 7 12 11 9 7 8 9 9 12 14 14 12 8 7 8 8 7 6 11 13 11 16 22 22 24 26 27 28 28 31 33 33 34 33
29 29 28 27 27 26 24 23 22 22 20 20 20 20 20 19 17 15 13 10 11 13 14 14 12 9 7 3 6 11 7 1 1 4 6 7 4 3 5 13 27 31 31 33 32 31 29 25 27 21 5 4 8 2 2 9 12 9 7 8 7 7 8 8 10 11 9 8 7 7 5 4 10 14 13 19 24 23 23 24 26 26 26 28 30 31 33 34
31 31 30 28 28 26 24 23 22 22 21 21 20 21 20 18 16 14 10 11 13 12 11 11 8 5 4 3 8 15 10 1 1 6 5 5 6 2 5 11 25 30 29 31 30 30 26 21 25 19 6 4 4 2 1 3 8 7 6 6 5 6 5 3 4 8 9 7 11 10 6 5 8 12 16 22 27 26 23 24 25 25 26 28 29 30 32 34
32 32 32 30 28 26 24 23 22 22 22 22 21 21 19 16 16 11 9 15 12 8 13 13 8 6 4 3 7 14 13 5 3 6 3 4 6 2 3 12 26 27 23 24 26 28 21 16 21 17 8 6 3 3 3 1 4 5 6 6 6 6 7 6 4 7 8 5 12 12 5 6 7 10 19 23 28 28 24 24 25 25 26 27 29 29 31 34
33 33 33 30 27 26 23 22 22 22 23 23 22 22 18 16 13 8 13 16 6 7 16 15 9 5 4 6 8 14 19 11 3 2 2 4 3 1 2 14 25 23 19 15 18 24 20 13 14 12 7 6 5 4 3 3 4 5 6 6 6 8 9 7 4 8 11 5 11 13 6 4 3 9 20 23 27 27 23 23 25 25 26 27 28 29 30 31
33 33 33 30 27 24 21 21 22 23 24 24 24 21 16 15 8 7 17 15 4 6 15 18 10 2 4 13 15 18 23 14 4 2 0 2 2 4 6 18 25 22 19 12 9 17 21 14 8 8 7 6 5 4 5 7 7 5 6 6 5 8 9 6 2 5 11 9 9 12 11 7 2 9 19 23 26 26 22 23 25 25 25 26 27 28 30 31
33 33 32 30 26 22 19 19 20 22 23 24 25 18 13 14 4 7 20 15 6 4 9 18 14 1 2 16 20 20 20 16 12 9 4 2 3 6 9 17 24 23 18 11 8 13 18 13 7 6 6 7 6 7 9 7 7 8 7 6 5 7 10 8 4 1 5 10 11 11 12 12 5 8 16 22 26 25 23 23 24 25 25 25 26 27 30 32
33 33 32 28 23 19 16 18 19 19 21 23 24 14 9 14 4 4 20 16 10 6 3 11 12 3 4 15 21 18 14 18 20 16 10 4 6 11 9 11 21 23 16 10 7 10 13 9 7 8 8 11 11 12 12 2 2 9 8 6 6 7 8 7 5 2 1 6 10 11 11 12 9 9 13 19 24 25 22 20 21 23 23 24 26 27 29 33
33 33 31 25 20 16 14 16 16 17 20 21 23 14 11 18 6 5 19 16 12 9 2 6 6 3 8 14 19 18 9 14 22 19 13 5 9 14 10 11 18 17 11 10 8 9 12 8 8 12 11 12 11 11 11 3 1 3 6 7 8 9 8 6 5 4 4 4 7 9 11 12 12 10 13 19 22 21 19 19 20 22 24 25 27 28 30 33
33 33 30 22 16 13 12 15 14 15 18 19 21 18 15 17 7 6 17 11 9 10 6 6 5 8 13 11 17 21 9 10 21 20 16 7 12 12 10 13 13 9 9 10 8 8 10 9 11 14 9 6 7 9 9 9 8 4 4 6 7 8 8 6 4 4 3 5 6 7 9 12 12 10 12 16 17 18 20 21 21 24 25 25 28 29 30 28
32 31 28 20 13 11 10 13 14 14 15 16 19 21 17 16 11 8 10 6 7 8 8 9 9 14 17 9 15 22 10 8 16 19 18 9 9 5 7 11 8 7 9 10 7 6 8 10 13 11 7 5 6 9 11 13 14 10 5 4 5 5 4 7 5 4 4 5 6 6 8 11 11 10 12 15 17 20 24 26 26 28 27 26 28 30 28 26
31 30 27 19 12 10 9 12 14 13 14 15 18 20 18 18 15 9 3 5 7 5 7 9 10 18 20 11 17 19 6 5 10 15 19 11 4 2 3 8 7 6 9 11 10 8 7 9 11 9 9 11 10 10 13 12 12 11 8 6 6 3 3 6 3 2 3 6 8 6 7 9 8 7 10 17 21 21 24 26 26 28 30 31 31 30 29 30
30 29 27 20 12 10 10 11 13 14 15 15 17 18 17 18 16 8 2 3 4 2 4 7 8 17 19 14 19 15 2 4 9 13 17 14 9 3 2 5 7 6 8 12 12 11 7 2 7 12 11 13 13 12 13 11 9 13 13 11 8 5 6 5 1 3 4 7 8 6 7 8 8 8 8 13 19 18 20 21 21 22 26 25 24 25 28 31
29 28 27 22 14 12 13 11 13 16 14 13 16 17 16 19 16 6 2 3 1 1 1 6 6 13 18 16 19 11 3 2 11 14 15 13 11 3 2 4 7 6 8 12 11 11 9 2 9 14 15 15 15 13 14 12 8 10 15 16 12 8 7 7 7 6 5 6 5 4 8 8 6 11 10 9 13 15 16 17 20 21 21 20 21 25 28 29
28 28 27 24 17 15 13 11 13 15 13 12 16 17 16 18 14 2 3 1 1 1 1 4 4 11 16 17 19 6 5 2 9 12 14 10 7 1 2 3 5 5 7 10 6 6 8 6 9 12 15 16 15 12 13 14 9 8 11 15 15 11 9 10 10 7 5 5 2 3 8 6 4 9 10 10 13 16 16 16 21 23 21 23 25 26 28 30
28 27 26 24 18 15 12 10 13 15 13 13 17 18 16 17 9 3 3 2 0 1 2 5 4 10 13 15 17 5 3 9 8 10 15 11 6 1 5 3 5 5 6 7 5 4 7 10 10 11 12 13 13 12 13 15 11 8 6 10 13 13 13 13 11 9 6 6 6 7 8 7 6 6 6 10 13 15 16 17 19 22 24 26 27 27 29 32
27 27 26 23 17 15 12 11 13 13 13 16 18 19 18 13 2 4 1 2 0 2 3 4 4 10 10 11 19 10 2 11 7 8 16 11 7 1 6 2 3 6 6 8 8 4 8 12 12 13 11 9 10 11 13 17 13 6 6 9 11 13 15 13 11 9 7 6 9 9 7 6 8 5 3 7 13 14 16 18 18 20 25 28 28 29 30 32
27 26 27 23 16 14 12 12 13 12 14 16 18 21 17 6 4 3 1 2 1 3 3 4 3 8 10 7 16 13 6 8 5 10 15 11 7 1 5 2 4 5 5 8 9 3 4 8 11 14 12 9 10 11 12 16 13 6 6 7 8 11 13 12 11 9 8 9 11 10 8 7 9 6 6 7 11 13 14 14 16 20 26 28 29 30 30 30
26 26 26 21 14 12 12 12 11 12 14 15 20 21 9 2 4 2 1 2 2 3 2 6 4 6 10 5 8 12 8 7 8 12 13 11 10 8 2 1 6 6 5 5 7 5 4 7 8 11 11 10 10 11 12 16 14 7 7 7 5 6 8 9 8 7 8 11 13 13 11 8 10 8 8 8 7 9 10 11 13 18 23 26 28 29 28 28
25 25 23 17 12 12 14 14 12 12 14 16 21 16 1 4 1 3 1 1 1 2 1 6 5 3 8 7 6 10 8 7 11 11 10 9 11 14 7 2 6 4 5 5 5 3 5 8 6 5 10 12 12 11 12 17 15 10 9 9 5 4 4 5 5 6 10 10 10 14 13 11 12 9 7 8 7 10 11 12 14 16 22 26 28 29 29 29
23 22 19 13 10 13 16 16 16 15 13 16 19 7 4 1 2 3 1 0 0 2 2 4 6 3 4 6 7 9 6 7 11 9 7 6 7 10 9 5 5 3 4 4 3 1 5 8 4 3 7 7 9 11 9 12 14 11 10 9 8 6 5 6 6 6 10 8 5 9 11 12 13 9 8 8 7 11 14 13 15 18 23 27 29 30 30 30
21 20 15 9 10 15 17 17 18 16 12 15 14 2 4 2 1 1 4 2 1 3 2 3 5 6 3 3 7 8 4 6 10 8 5 5 5 7 8 10 8 2 1 1 1 3 6 6 5 8 5 3 3 9 7 8 12 12 11 10 10 8 7 9 8 7 8 6 4 6 7 10 11 8 11 14 13 14 16 15 16 20 24 27 29 31 30 30
19 17 11 8 12 18 19 18 18 14 10 12 9 2 3 2 1 3 4 3 2 2 3 2 2 5 7 5 5 6 3 5 8 8 5 4 3 4 5 10 12 6 2 2 1 3 6 5 4 6 2 5 2 2 3 3 8 12 11 10 10 9 8 8 7 7 7 5 6 8 7 7 6 3 5 12 18 20 21 21 19 19 23 26 28 29 29 30
18 13 7 10 16 17 18 17 15 10 8 7 4 2 1 1 1 2 3 3 2 1 3 2 1 3 5 4 4 5 4 4 6 6 5 5 4 4 4 7 11 9 3 2 1 1 5 4 2 2 3 1 3 3 4 3 7 10 10 11 11 10 8 5 4 5 4 5 7 9 6 4 2 5 4 5 11 17 22 25 24 21 21 21 22 24 27 29
17 8 6 15 19 17 16 16 12 4 5 3 1 3 2 2 1 1 1 2 2 1 1 1 3 2 2 2 3 6 5 4 5 3 3 5 4 4 4 4 10 10 6 3 2 2 3 3 4 6 2 4 3 6 4 4 4 5 10 12 10 9 9 7 5 3 3 7 6 6 8 7 5 10 10 7 7 10 15 19 22 24 21 20 21 24 27 29
17 7 9 21 22 17 15 12 7 3 5 2 3 4 2 2 3 2 3 3 2 1 0 0 2 1 1 2 2 6 5 3 4 3 1 2 2 4 3 4 8 10 8 5 2 1 2 6 6 6 2 2 6 9 7 8 6 3 7 10 7 8 10 8 6 5 6 9 6 5 10 10 7 7 8 12 12 11 12 13 18 20 19 21 23 25 29 32
19 8 11 24 23 16 12 9 6 5 6 4 5 5 1 2 5 7 6 5 1 1 1 1 2 0 0 1 1 4 5 2 3 3 1 0 1 3 2 2 6 8 10 7 2 1 3 6 4 1 3 5 8 7 8 10 11 7 5 4 6 9 10 8 7 8 9 9 6 6 9 9 9 7 4 11 16 15 12 11 14 15 16 21 24 26 31 33
17 5 10 25 22 13 8 6 5 4 6 5 4 4 2 2 6 11 11 6 1 1 1 1 1 1 1 1 1 2 3 2 2 1 1 1 1 4 4 2 4 8 11 9 3 2 3 4 2 2 2 7 5 4 7 8 12 11 8 5 7 7 7 9 8 7 7 8 7 7 8 8 9 7 6 10 14 16 15 11 11 12 16 21 24 25 29 30
15 2 8 26 21 9 5 3 5 6 6 3 2 3 3 3 6 12 13 8 2 2 1 2 1 1 2 1 0 1 2 1 1 1 0 1 0 3 4 3 4 7 11 7 3 3 2 3 4 2 5 7 3 3 3 2 3 5 5 6 7 5 4 7 8 8 8 7 7 6 7 7 5 5 8 12 11 14 16 12 9 11 18 23 25 25 28 32
15 2 10 27 19 6 4 6 8 7 4 3 3 3 4 5 7 11 14 11 6 5 5 3 2 2 1 1 1 0 1 1 1 1 2 1 1 1 2 3 4 7 8 5 2 3 2 2 4 5 6 6 2 2 3 2 2 2 2 2 3 3 4 7 9 10 9 9 7 6 7 6 3 3 7 12 11 12 15 14 11 12 18 22 24 26 30 36
13 4 12 27 19 6 7 8 6 4 3 3 3 2 4 6 6 8 12 12 8 6 6 4 3 3 1 0 0 1 1 2 2 2 2 2 1 1 2 4 4 5 5 4 3 4 4 3 4 6 6 8 11 9 7 7 6 4 4 2 2 3 3 5 6 5 7 10 9 7 9 7 3 3 5 9 9 8 10 10 11 14 18 23 27 28 31 38
10 6 15 26 18 7 9 7 4 4 4 4 3 3 4 6 7 7 9 10 7 5 4 4 3 2 2 2 1 1 1 2 2 2 1 2 2 2 2 4 3 4 4 4 3 4 4 4 4 6 6 9 12 8 4 5 5 4 3 1 1 1 1 3 5 2 3 7 8 8 9 7 4 4 6 10 8 8 10 10 11 13 14 19 26 26 28 36
9 8 17 26 18 7 8 5 2 4 4 3 5 7 6 6 8 8 7 8 8 5 3 3 3 3 3 4 2 1 2 2 1 1 1 1 1 0 3 4 1 3 3 3 4 5 4 3 3 4 4 5 6 4 3 4 3 2 1 2 1 1 3 4 4 2 3 6 8 9 8 5 3 3 6 12 10 8 10 10 10 12 12 12 14 16 21 30
7 5 12 23 24 19 13 6 3 4 4 4 6 8 7 5 7 8 6 6 9 7 3 2 3 3 5 5 2 2 3 2 2 1 0 1 1 0 3 5 2 2 3 4 6 6 4 3 3 5 5 5 5 4 2 1 0 1 1 2 2 1 3 3 1 3 4 4 7 9 5 4 3 2 6 11 11 10 10 8 8 12 15 15 14 14 17 23
5 3 6 13 21 22 15 10 7 4 3 4 4 6 8 5 4 7 6 5 9 10 4 3 3 3 5 7 4 3 4 3 3 3 3 4 3 2 2 4 4 4 5 6 7 4 3 5 6 9 9 8 5 1 1 4 5 4 4 4 3 1 1 1 1 3 1 2 5 5 2 6 6 4 6 9 9 10 10 7 6 9 13 15 16 18 18 21
3 3 4 5 8 11 9 10 11 6 2 2 2 3 7 6 4 6 5 5 9 10 4 4 6 5 6 7 5 4 4 4 5 6 6 6 5 4 4 4 5 7 8 7 4 3 4 5 8 11 14 14 13 11 8 7 8 8 9 10 7 3 3 4 5 4 3 4 6 2 5 6 4 2 4 5 5 7 8 7 5 6 8 11 14 16 17 19
4 3 4 4 3 5 6 8 10 8 4 3 2 3 6 7 7 6 5 4 7 8 3 3 6 7 6 6 4 4 5 5 5 5 4 5 5 6 6 5 6 8 8 5 2 2 4 7 8 11 15 16 16 16 12 9 10 10 11 13 12 8 7 7 9 9 7 5 6 8 10 8 4 6 10 12 11 10 11 12 11 10 10 11 14 17 17 16
6 3 4 5 3 2 3 5 7 7 6 5 4 5 6 7 8 7 5 4 5 6 4 3 5 7 6 4 2 3 4 6 6 5 4 6 7 6 6 6 5 5 5 5 3 3 4 6 8 10 14 16 17 16 14 12 12 12 13 14 14 11 10 10 10 11 11 11 10 12 16 12 7 7 11 13 15 14 14 15 14 11 11 11 13 16 19 21
6 4 4 4 3 2 2 3 4 4 4 4 4 4 5 6 7 7 5 5 5 4 5 6 8 9 7 4 3 4 5 6 8 8 7 7 8 6 4 5 4 2 4 4 3 4 5 5 7 8 10 13 15 15 15 14 14 14 14 13 13 12 11 11 10 7 8 10 11 13 15 12 6 6 11 14 14 13 11 11 11 11 12 13 14 15 18 24
6 5 4 2 3 4 4 4 4 2 3 4 4 4 5 5 7 8 6 4 3 3 5 8 9 8 7 6 6 8 9 9 11 13 13 12 12 9 6 6 6 4 5 6 4 4 5 6 7 6 7 10 10 10 12 12 12 14 15 13 13 12 9 7 3 3 3 3 6 8 8 5 5 9 12 11 10 9 9 10 11 11 13 14 15 16 18 22
4 5 5 3 2 4 5 5 4 2 3 4 5 5 4 5 7 8 5 2 2 4 5 7 8 7 6 8 8 8 10 12 15 18 19 18 19 19 17 16 15 12 8 7 6 5 6 6 6 5 7 9 8 7 7 8 9 11 11 12 14 12 7 4 2 5 5 3 4 5 3 5 9 12 11 9 9 8 8 10 11 12 14 15 16 18 20 22
Wind_Direction
3 359 356 355 353 353 353 353 355 355 355 353 351 349 346 344 344 345 348 354 357 349 340 336 332 328 322 315 310 306 300 291 285 275 271 289 299 251 230 214 207 207 195 188 190 187 182 181 182 178 178 178 182 191 194 198 193 187 194 230 235 228 229 229 229 328 356 148 153 168 179 159 147 158 145 142 145 141 148 135 135 156 158 173 175 160 157 162
4 360 356 353 352 351 350 350 352 353 352 351 350 348 346 345 345 345 347 351 354 350 342 337 332 331 328 321 313 309 306 301 295 286 282 281 272 239 213 200 201 207 198 191 193 190 186 184 182 176 172 172 182 189 190 193 191 196 203 227 231 216 209 243 275 311 340 146 159 175 186 179 160 156 159 157 152 151 147 133 132 122 123 148 157 154 159 163
4 1 357 353 352 350 349 349 349 349 350 349 347 347 346 345 345 344 343 343 346 346 342 336 330 329 327 323 319 313 312 311 311 307 311 287 251 218 201 187 195 205 200 198 197 197 195 188 182 174 167 167 178 180 187 189 191 203 212 232 236 231 243 263 265 276 314 138 169 180 184 190 168 157 168 168 159 167 168 155 150 139 137 145 150 155 161 164
4 2 358 354 352 350 349 348 347 348 347 347 346 346 345 344 344 341 339 337 338 341 342 336 330 331 328 323 322 319 321 320 342 19 330 326 9 203 197 182 190 201 197 200 198 198 200 188 179 170 164 167 173 174 190 192 185 194 207 229 227 215 239 248 262 271 279 230 191 182 182 188 174 168 174 164 159 185 197 181 171 160 150 151 155 159 163 165
3 1 359 355 352 350 349 348 348 347 346 347 345 344 344 342 342 340 337 335 335 338 339 336 337 347 341 330 325 322 327 327 99 13 320 284 27 186 193 184 191 197 191 196 194 191 194 183 171 164 163 163 168 176 199 198 194 202 218 233 233 229 249 269 27 313 343 235 203 184 186 180 169 181 184 175 175 201 202 189 177 170 161 158 160 161 165 168
3 1 358 355 352 350 350 349 348 347 346 347 345 342 341 340 340 338 336 335 333 335 336 333 348 4 0 349 336 323 311 247 294 337 324 273 338 122 190 190 193 194 190 194 189 184 183 174 166 164 166 165 176 187 195 196 204 224 233 236 240 250 262 282 288 299 338 316 222 197 190 170 168 193 196 192 201 211 188 180 176 178 172 163 162 164 167 170
5 2 358 355 352 349 350 350 348 347 346 347 346 340 338 338 339 337 335 334 331 331 332 323 328 358 1 355 344 328 292 270 295 341 336 287 267 167 188 191 194 193 189 190 186 182 178 172 170 168 166 172 189 199 185 190 208 233 249 246 242 249 255 269 283 292 310 298 265 215 191 180 185 198 195 202 213 163 170 180 180 176 169 164 164 168 170 171
5 3 358 354 351 349 350 350 349 347 346 348 346 338 335 336 337 335 333 333 330 329 330 315 297 323 344 349 343 324 295 274 253 14 6 336 251 215 190 192 195 193 191 193 189 183 178 175 176 171 174 184 184 195 184 182 210 229 244 255 246 250 257 267 278 287 296 292 274 205 197 198 197 189 190 206 203 162 170 177 176 169 166 167 168 170 171 172
5 2 358 354 351 349 350 350 349 347 348 349 345 338 334 335 336 334 332 332 333 330 330 317 295 304 325 337 337 318 303 294 239 278 358 16 344 193 190 197 198 194 192 194 194 188 180 179 182 178 184 186 176 189 188 188 212 223 234 253 260 256 266 277 279 281 286 288 261 201 212 208 195 186 202 207 188 167 171 168 169 169 168 171 171 172 173 174
4 2 358 355 352 349 350 350 349 348 349 349 346 337 333 336 335 331 333 336 337 333 330 322 310 310 317 325 329 304 330 329 270 292 326 351 6 155 188 201 203 198 193 192 194 192 188 189 189 183 185 185 185 190 188 199 218 213 231 249 260 267 273 276 277 274 278 279 252 227 236 213 189 194 211 190 177 172 163 162 168 170 172 175 175 174 175 177
4 2 357 355 353 351 350 350 349 349 349 351 347 337 335 337 333 331 339 343 340 337 331 326 321 318 317 319 307 249 328 326 294 315 323 333 342 352 188 201 204 200 196 192 194 196 195 196 190 181 182 187 185 192 199 214 244 241 241 255 257 266 272 268 269 267 266 267 243 230 244 217 182 204 216 172 172 177 164 160 168 171 174 177 177 176 178 179
2 2 358 355 353 352 351 349 349 349 348 351 346 337 337 337 334 337 347 348 343 339 331 325 322 321 325 328 355 354 334 311 295 323 336 345 328 274 179 198 202 198 198 196 195 197 196 197 191 182 182 179 170 181 218 221 234 248 258 272 272 275 274 261 256 255 244 249 229 214 243 217 191 216 211 172 171 175 167 164 168 172 174 176 177 178 180 181
360 1 359 355 353 353 352 350 350 349 348 351 345 338 341 338 337 346 355 352 343 339 334 330 327 334 348 13 44 28 11 337 358 347 347 3 354 222 172 190 198 195 197 198 194 192 193 196 193 188 188 171 165 155 222 210 216 235 245 259 280 282 277 257 244 236 229 240 200 181 242 229 210 216 192 172 172 169 167 168 171 172 173 176 178 180 182 184
358 360 359 355 353 353 352 351 350 348 349 350 346 342 344 341 344 355 3 352 342 345 353 353 354 8 38 73 36 21 17 56 351 345 340 5 5 259 170 173 192 193 194 199 195 188 189 195 193 193 206 195 181 215 250 184 199 217 227 236 256 258 260 238 223 211 213 220 182 187 253 248 223 203 177 173 174 171 171 172 173 174 174 177 180 182 184 187
357 358 358 355 353 352 352 352 350 349 349 350 349 347 347 345 350 3 8 351 345 13 20 15 28 43 52 56 16 4 3 350 304 335 331 338 353 292 179 170 183 186 187 196 197 188 182 186 191 197 214 220 236 244 234 195 190 203 211 222 221 231 256 246 219 208 213 197 179 195 248 248 236 186 172 174 176 176 176 175 176 176 177 178 181 184 186 190
355 356 357 355 352 353 352 351 350 350 349 351 353 351 349 349 352 14 9 355 359 47 27 21 35 65 58 22 3 358 360 354 313 315 317 333 338 226 163 168 175 175 170 178 194 191 181 176 189 203 219 226 230 225 221 221 214 204 212 227 203 207 245 247 225 222 224 204 183 202 236 257 233 172 172 175 178 180 178 177 178 179 179 180 182 184 186 190
353 355 357 355 354 355 353 352 352 352 351 353 356 354 351 352 1 39 15 6 38 49 31 25 21 93 51 18 5 356 0 5 30 99 50 350 248 208 155 164 171 167 159 149 156 179 186 183 184 205 216 228 224 205 215 220 211 198 210 227 206 208 233 237 235 228 220 217 203 208 232 252 206 159 173 178 181 183 181 181 180 180 181 181 183 185 187 190
352 355 356 356 356 356 355 356 355 355 353 351 357 358 356 2 39 49 15 16 32 33 39 25 17 139 4 3 357 352 7 27 42 48 50 38 189 184 159 164 171 166 157 146 132 158 180 186 187 200 209 216 213 204 211 215 207 202 203 212 210 216 232 231 224 195 195 215 216 210 226 242 220 160 179 184 183 187 188 184 182 181 182 182 184 187 190 192
351 354 358 359 358 359 358 358 360 0 357 355 359 359 6 18 60 24 12 24 33 26 43 8 14 81 306 337 351 356 21 39 34 35 40 45 148 154 154 161 166 166 161 163 162 159 169 174 190 203 210 209 207 208 211 207 206 213 210 215 219 218 231 234 228 252 226 219 223 219 227 238 224 182 185 189 188 193 192 182 182 183 183 184 187 190 193 196
351 354 359 2 1 3 1 2 7 5 3 3 2 6 18 17 26 346 1 22 40 31 30 347 359 12 325 332 357 5 29 42 32 33 36 47 145 143 140 145 153 163 172 175 166 162 172 179 200 209 213 205 200 205 214 233 322 225 212 219 227 226 234 232 225 251 262 250 237 226 233 241 235 209 192 192 193 196 192 182 183 185 186 188 190 193 196 200
350 354 1 4 4 7 7 7 10 10 11 6 7 26 34 15 15 333 343 1 30 31 48 29 18 2 352 351 3 6 8 27 32 37 37 71 149 147 144 147 150 169 182 165 136 142 178 204 216 213 207 185 189 198 208 223 233 241 219 218 226 226 238 248 248 263 257 257 250 236 244 245 240 227 199 189 193 199 196 189 187 189 190 192 193 196 198 199
349 353 359 4 5 7 6 6 9 11 11 6 15 33 32 11 3 337 327 314 339 23 55 41 31 12 9 16 2 2 1 4 23 33 35 71 147 158 156 165 174 179 166 153 138 152 192 223 223 203 171 167 192 199 203 217 229 239 237 230 232 215 244 264 257 252 246 251 255 247 253 255 249 234 205 191 196 204 203 196 192 191 190 194 196 196 195 192
348 350 356 0 2 2 355 358 5 5 4 10 23 26 15 0 351 338 309 281 310 14 53 34 26 11 13 21 357 357 16 19 9 14 20 39 79 41 169 190 193 165 164 176 180 182 198 230 220 176 157 191 199 195 202 211 225 234 234 234 231 198 227 243 213 188 241 252 263 270 264 262 257 234 207 201 204 207 207 205 200 194 194 197 199 195 192 190
348 347 351 354 352 352 344 342 355 0 2 11 19 14 0 349 342 335 261 254 299 326 31 31 26 9 9 4 351 350 13 39 10 2 10 16 11 10 189 201 196 182 184 193 197 200 205 217 179 166 171 197 202 197 201 208 219 226 232 236 232 221 231 245 307 333 286 251 251 266 268 262 243 232 221 206 208 211 209 208 206 204 203 201 198 195 195 194
347 345 347 348 345 342 338 336 351 358 358 5 7 358 349 340 335 330 218 230 288 251 13 29 21 7 3 353 352 353 192 44 13 4 8 5 352 339 184 185 200 209 190 191 207 217 221 155 140 168 184 195 204 205 202 205 218 223 227 233 237 240 241 254 279 291 281 248 222 223 252 254 219 226 229 198 202 214 209 205 208 209 205 200 199 199 199 199
346 343 342 344 341 335 337 342 349 351 351 356 354 346 341 335 328 302 172 224 63 136 32 9 8 9 5 356 355 3 172 15 7 11 12 1 350 314 215 170 188 222 186 184 218 232 223 194 158 178 194 196 203 211 203 201 218 231 221 221 228 240 244 247 258 261 257 258 245 222 249 257 212 220 223 196 197 209 206 206 211 208 202 203 205 202 199 199
344 341 338 341 338 333 340 345 343 347 351 347 343 342 337 330 319 183 179 248 160 98 14 358 10 15 13 12 13 52 175 338 342 16 16 3 357 245 216 182 178 209 162 168 225 214 199 202 183 186 202 204 207 212 199 192 213 236 195 187 208 226 235 239 245 246 255 281 282 255 249 267 255 226 209 199 205 210 205 207 213 208 204 207 209 206 202 201
342 338 337 341 338 331 333 333 336 345 347 339 339 341 335 326 283 165 233 265 189 78 23 3 23 19 17 30 35 57 25 347 338 359 14 15 359 285 210 251 224 213 167 185 222 169 175 205 193 185 207 219 216 217 198 191 214 233 163 170 200 218 227 233 241 245 255 272 265 244 224 254 258 223 169 198 212 216 209 210 212 207 206 209 210 208 206 204
342 338 338 342 339 328 321 322 329 335 337 335 340 342 336 321 180 161 294 240 100 76 37 15 34 10 359 19 34 34 16 18 360 342 11 29 14 58 192 355 344 264 222 211 232 197 183 222 196 189 210 221 217 221 201 196 214 213 163 186 209 217 221 223 231 240 247 249 251 239 206 233 260 232 190 197 211 216 211 213 215 209 209 210 210 210 208 204
343 339 339 342 338 327 318 315 315 323 331 333 341 343 342 143 175 199 214 208 58 68 39 23 28 349 354 13 26 15 12 21 354 344 11 28 31 48 114 21 6 303 237 209 232 238 289 270 214 201 217 216 210 216 206 205 211 190 183 207 212 213 215 219 225 226 238 242 244 239 214 222 259 245 211 204 201 200 201 211 215 211 213 214 213 213 209 204
343 339 339 342 338 331 323 316 312 321 327 332 344 348 97 129 232 211 164 199 31 63 90 33 27 3 22 43 28 4 5 10 358 359 15 19 29 34 26 355 358 325 217 210 219 216 278 250 211 202 218 210 209 211 205 209 211 198 201 212 208 200 194 212 212 206 233 241 233 230 218 221 245 242 214 203 183 188 202 210 209 207 213 215 215 215 210 207
343 338 337 339 337 336 328 316 314 318 320 331 344 355 161 178 266 201 27 302 186 35 67 37 27 27 30 46 33 4 352 6 4 10 28 29 40 39 37 30 353 287 204 218 204 179 247 226 195 204 208 202 213 212 197 202 210 210 208 206 208 207 195 210 209 206 231 239 224 218 211 222 245 252 233 219 196 201 212 214 207 205 210 212 213 214 210 208
344 337 334 336 334 332 324 309 307 307 308 327 339 25 164 264 224 85 12 27 42 20 55 68 46 42 31 42 27 359 351 19 5 4 23 33 58 65 55 36 12 313 228 344 266 229 219 200 201 209 195 26 252 215 201 198 202 205 204 202 205 205 206 216 217 222 233 236 226 208 206 233 253 255 229 226 228 222 221 224 216 207 208 210 212 213 210 208
346 340 336 337 333 328 322 314 310 299 293 321 330 159 178 248 124 41 23 31 22 24 50 59 53 47 49 55 24 357 15 43 18 12 17 18 42 54 42 28 20 8 330 321 281 239 223 213 205 198 202 3 349 232 273 232 204 204 203 206 211 208 213 217 215 225 235 239 210 186 192 226 232 235 208 218 230 225 221 226 223 215 212 212 213 212 210 208
349 348 350 343 337 333 330 328 322 296 267 306 331 148 171 171 98 41 32 7 332 44 55 45 49 51 53 48 26 16 20 26 21 23 34 40 38 30 22 14 15 15 351 288 25 351 258 246 53 10 293 344 46 2 327 273 218 205 196 208 218 212 214 223 230 233 242 255 222 192 212 243 254 301 292 231 234 226 219 220 218 217 213 209 211 211 209 209
352 357 10 350 346 348 344 339 334 289 222 260 52 104 95 88 70 328 16 335 291 75 73 95 58 51 54 31 20 25 17 0 7 13 55 57 51 47 44 22 16 18 16 350 341 357 272 265 8 345 264 141 39 331 294 250 237 201 198 213 215 203 211 229 239 234 237 250 235 197 232 251 271 278 256 220 234 231 221 217 216 216 205 197 207 210 209 208
353 357 5 356 354 354 352 356 12 116 157 160 104 93 100 90 32 353 351 325 258 101 54 205 33 22 39 33 20 17 4 341 358 359 39 60 68 61 57 40 23 14 12 0 314 34 320 286 317 324 232 149 333 307 264 239 233 207 207 203 184 192 212 228 235 222 221 239 229 191 231 240 233 252 225 202 217 228 220 216 219 216 199 197 208 209 212 211
349 348 4 2 357 350 358 25 45 110 118 89 98 90 61 61 35 12 351 331 274 111 134 148 43 92 41 13 47 17 349 329 10 3 353 4 88 71 61 35 24 6 357 346 290 32 341 292 295 273 256 313 325 291 246 217 203 220 252 198 178 205 210 206 222 228 225 236 237 209 227 240 230 236 221 204 213 222 221 213 218 212 195 204 211 210 214 213
347 346 4 1 356 348 2 34 36 93 101 69 92 86 22 21 29 9 355 344 286 54 118 160 38 99 123 17 35 18 354 351 4 331 333 2 77 88 78 30 13 1 350 341 307 324 332 285 264 114 328 320 315 236 230 206 192 217 255 239 215 223 214 204 212 226 228 236 242 221 217 236 236 232 241 227 214 217 220 213 215 208 195 203 210 209 211 209
355 25 2 359 359 355 356 36 44 64 82 59 74 68 6 9 13 3 6 18 41 20 48 149 85 113 114 56 299 2 12 355 320 264 269 9 100 102 86 50 14 359 344 332 308 310 313 257 257 319 330 298 259 177 196 153 151 205 237 238 229 225 216 217 216 217 226 234 236 227 225 238 228 203 231 240 226 216 218 216 215 205 199 205 209 208 207 207
7 57 354 357 4 18 38 67 54 46 73 70 66 46 13 20 7 359 14 34 55 41 43 80 72 84 121 116 158 352 321 285 265 240 239 226 222 78 90 73 24 3 343 330 325 322 313 268 271 295 305 274 243 72 56 28 359 291 253 250 260 255 234 228 219 211 220 233 232 233 243 248 218 175 221 233 228 219 214 213 217 209 202 206 208 208 210 213
20 43 353 359 8 37 73 75 45 32 75 52 35 1 360 17 9 0 12 28 44 37 40 64 58 63 101 344 185 146 307 278 234 248 253 200 228 312 116 107 40 9 348 326 325 328 310 284 277 274 270 271 277 288 290 277 264 245 239 257 308 304 268 242 234 216 220 229 228 235 251 253 215 184 236 241 238 244 237 224 223 218 207 209 214 212 213 218
22 21 7 8 11 40 79 77 39 49 64 29 18 24 22 28 23 16 18 24 27 15 28 58 44 52 67 1 302 203 311 294 238 239 258 207 239 288 154 127 49 1 350 335 336 340 309 261 265 269 267 276 274 270 268 249 212 185 203 241 280 293 338 289 279 316 270 232 221 226 241 251 220 187 245 259 254 265 275 267 250 242 226 218 220 215 211 217
11 9 19 20 22 51 76 63 37 60 53 29 43 42 42 46 30 20 24 29 23 1 7 43 30 37 34 352 323 320 339 315 248 226 257 247 278 288 181 155 80 351 351 352 349 347 319 261 260 271 260 248 235 199 150 160 159 151 151 136 148 11 348 294 257 259 270 239 228 231 234 244 231 170 221 250 253 255 260 257 253 257 256 244 232 222 215 217
4 8 22 27 41 64 75 64 57 72 53 42 53 38 29 45 36 21 24 34 25 7 347 21 31 46 25 354 344 1 343 306 283 316 286 279 322 329 226 203 200 311 329 322 318 315 297 276 269 257 240 223 207 181 169 171 66 350 164 168 199 348 347 313 252 218 235 240 241 241 238 240 236 166 208 237 250 257 253 240 234 244 251 255 254 244 233 223
15 19 1 16 40 57 68 63 51 61 51 33 56 41 24 33 34 18 22 36 21 9 4 21 21 36 23 6 356 348 336 309 306 315 295 287 294 321 279 230 222 264 291 301 309 305 278 269 264 259 259 267 283 298 326 330 319 291 287 281 253 215 275 294 229 221 272 318 254 237 277 269 250 210 212 227 242 259 265 254 235 240 250 258 261 256 246 234
48 42 359 347 22 37 48 49 38 37 43 14 33 38 27 35 32 15 25 34 12 2 11 56 45 37 22 9 354 331 331 325 312 301 289 289 291 296 300 274 255 275 285 288 296 293 274 265 262 264 266 272 284 289 291 300 292 282 289 287 277 263 244 224 224 247 338 315 254 299 358 294 263 263 284 297 300 291 294 296 291 289 286 285 281 272 259 240
66 73 32 22 27 24 25 23 15 15 25 29 47 38 26 34 32 18 18 14 5 5 6 59 49 34 21 13 351 315 319 312 295 287 289 301 307 308 309 295 276 279 280 271 254 257 270 270 268 271 271 271 276 281 281 278 271 270 273 275 280 278 254 234 240 252 261 249 259 310 313 289 300 335 328 331 329 317 312 314 319 320 310 302 292 283 273 253
67 81 44 35 45 38 10 355 355 8 19 23 43 40 22 25 25 15 1 334 348 17 14 347 360 1 360 5 336 286 300 300 292 295 308 308 306 306 305 295 285 279 267 254 239 237 258 270 268 268 272 273 271 272 272 267 265 266 264 265 271 272 260 252 253 255 250 238 242 269 278 279 288 312 321 321 316 317 316 317 325 329 325 319 305 288 277 267
63 61 28 19 29 23 12 6 358 9 25 21 33 38 21 19 18 5 345 322 318 353 4 342 338 339 334 333 302 262 261 277 284 284 285 291 292 286 276 273 267 243 239 244 235 223 234 266 286 287 280 276 273 270 263 256 255 260 261 260 261 262 259 252 256 271 267 247 239 249 263 275 293 326 325 312 308 314 315 320 334 336 332 326 311 295 282 271
62 57 38 25 27 20 24 27 8 4 42 29 22 22 7 5 10 355 335 317 294 304 333 332 327 326 315 300 283 270 266 265 267 268 267 267 268 264 255 249 244 235 234 235 227 216 226 260 290 294 280 276 280 277 261 247 246 253 254 250 250 252 246 232 242 337 339 276 252 246 252 276 335 338 325 308 306 313 316 326 334 329 325 319 306 296 287 278
50 49 50 56 46 22 12 12 6 14 34 15 4 8 355 345 0 356 346 347 290 280 299 308 308 310 302 288 283 286 286 279 274 275 272 266 261 259 255 247 243 244 245 240 236 225 225 255 277 269 269 274 276 288 279 246 237 248 244 229 227 228 215 176 95 27 14 324 257 241 269 337 339 328 321 311 307 307 313 324 326 321 317 308 299 295 289 283